BEESAT-1

Last updated on Sun Nov 02 2025 00:03:12 GMT+0000 (Coordinated Universal Time)

1 35933U 09051C 25305.46435526 .00001528 00000+0 32075-3 0 9993 2 35933 98.4068 204.4000 0004414 203.5211 156.5788 14.61116151855923
UTC large
Height (km)
Speed (km/s)
/
Latitude / Longitude
Inclination (degrees)
Orbital Period (minutes)
Azimuth
Elevation
Range (km)
Doppler Factor

Next 0 passes for location: London (51.5072 / 0.1276)

Sorry there are no passes over London.